This demonstration page uses our WeatherBlox Daily Observations layout. Learn more.

39.01783, -85.05884

Hourly Observations for November 6, 2019

Temp ( °F °C ) Dew Point ( °F °C ) Humidity (%) Winds ( mph kmh ) Pressure ( in mb ) Visibility ( mi km ) Precip ( " mm )
12:52 am 00:52 Clear 33 0.6 28 -2.2 82 82 WSW 3 6 30.39 1029 10 16.0934 0 0
1:52 am 01:52 Clear 32 0 30 -1.1 92 92 S 3 6 30.4 1029 8 12.87472 0 0
2:52 am 02:52 Clear 34 1.1 29 -1.7 82 82 Calm 30.41 1030 10 16.0934 0 0
3:52 am 03:52 Clear 32 0 28 -2.2 85 85 Calm 30.41 1030 10 16.0934 0 0
4:52 am 04:52 Partly Cloudy 32 0 28 -2.2 85 85 Calm 30.42 1030 9 14.48406 0 0
5:52 am 05:52 Partly Cloudy 33 0.6 28 -2.2 82 82 Calm 30.42 1030 10 16.0934 0 0
6:52 am 06:52 Mostly Cloudy 30 -1.1 27 -2.8 88 88 SSE 3 6 30.43 1031 9 14.48406 0 0
7:52 am 07:52 Mostly Sunny 36 2.2 29 -1.7 76 76 SE 9 15 30.43 1031 9 14.48406 0 0
8:52 am 08:52 Sunny 40 4.4 31 -0.6 70 70 ESE 7 11 30.45 1031 10 16.0934 0 0
9:52 am 09:52 Sunny 44 6.7 29 -1.7 55 55 SE 12 19 30.44 1031 10 16.0934 0 0
10:52 am 10:52 Sunny 48 8.9 30 -1.1 50 50 SE 12 19 30.42 1030 10 16.0934 0 0
11:52 am 11:52 Mostly Sunny 51 10.6 31 -0.6 46 46 SSE 10 17 30.4 1029 10 16.0934 0 0
12:52 pm 12:52 Mostly Cloudy 53 11.7 31 -0.6 43 43 SE 8 13 30.35 1028 10 16.0934 0 0
1:52 pm 13:52 Mostly Cloudy 55 12.8 33 0.6 44 44 SSE 10 17 30.31 1027 10 16.0934 0 0
2:52 pm 14:52 Cloudy 55 12.8 33 0.6 44 44 S 7 11 30.29 1026 10 16.0934 0 0
3:52 pm 15:52 Cloudy 54 12.2 35 1.7 49 49 S 7 11 30.28 1025 10 16.0934 0 0
4:52 pm 16:52 Cloudy 53 11.7 36 2.2 52 52 S 6 9 30.27 1025 10 16.0934 0.001 0.001
5:52 pm 17:52 Cloudy 52 11.1 37 2.8 57 57 SSE 5 7 30.26 1025 10 16.0934 0 0
6:52 pm 18:52 Cloudy 51 10.6 39 3.9 64 64 S 7 11 30.26 1025 10 16.0934 0.001 0.001
7:52 pm 19:52 Cloudy with Light Rain 50 10 39 3.9 66 66 S 5 7 30.25 1025 10 16.0934 0.001 0.001
8:52 pm 20:52 Cloudy 50 10 39 3.9 66 66 SSW 6 9 30.24 1024 10 16.0934 0.001 0.001
9:52 pm 21:52 Cloudy 50 10 40 4.4 68 68 SSW 10 17 30.21 1023 10 16.0934 0.001 0.001
10:52 pm 22:52 Cloudy with Rain 48 8.9 45 7.2 89 89 SW 9 15 30.21 1023 4 6.43736 0.01 0.254
11:52 pm 23:52 Cloudy 48 8.9 46 7.8 93 93 SSW 6 9 30.2 1023 9 14.48406 0.05 1.27

Powered by AerisWeather